View from above orbital plane
|
View from above satellite
|
Ground track
|
The orbit data is extracted from the following two-line orbital elements,
1 20578U 90036B 21060.12363833 -.00000067 00000-0 -84037-4 0 9999
2 20578 82.9395 75.4845 0013502 148.2965 274.1346 13.76380458549807
Epoch (UTC): | 01 March 2021 02:58:02 |
Eccentricity: | 0.0013502 |
inclination: | 82.9395° |
perigee height: | 967 km |
apogee height: | 986 km |
right ascension of ascending node: | 75.4845° |
argument of perigee: | 148.2965° |
revolutions per day: | 13.76380458 |
mean anomaly at epoch: | 274.1346° |
orbit number at epoch: | 54980 |
The dashed part of the orbit path shows where the satellite is in the earth's shadow,
|
|